www.pogodaiklimat.ru

Погода и климат >> Архив погоды >> Индонезия >> Сурабая Геданган


ПОГОДА в Сурабая Геданган

  • Прогноз погоды в Сурабая Геданган
  • Монитор погоды в Сурабая Геданган

АРХИВ ПОГОДЫ в Сурабая Геданган

Время (UTC), дата Ветер
(напр.,м/с)
 
Видим.   Явления Облачность Т
(С)
Тd
(С)
f
(%)
Тe
(С)
Тes
(С)
Комфортность P
(гПа)
Po
(гПа)
Тmin
(С)
Tmax
(С)
R
(мм)
R24
(мм)
S
(см)
00 9.07 Ю 2 9000 м 3/0
[Ci fib]
+23.0 +20.2 84 +30 +32 очень
душно
1014.2 1013.8 +22.5
03 9.07 Ю 2 12 км 1/0
[Ci fib]
+30.1 +20.8 58 +37 +52 опасность
солнечного
удара
1014.2 1013.8
06 9.07 ЮВ 3 12 км 1/1 600 м
[Cu hum]
+32.2 +21.0 52 +40 +50 очень
душно
1011.9 1011.5
09 9.07 ЮВ 6 11 км 4/1 600 м
[Cu hum As trans Ci fib]
+30.1 +20.0 55 +37 +37 очень
душно
1010.9 1010.5
12 9.07 ЮВ 2 9000 м 6/4 600 м
[Cu hum Ac trans Ci fib]
+27.8 +21.9 70 +36 +36 очень
душно
1012.6 1012.2 +32.7
15 9.07 Ю 2 9000 м 6/4 600 м
[Cu hum Ac trans Ci fib]
+27.1 +22.4 76 +36 +36 очень
душно
1013.6 1013.2
18 9.07 З 2 9000 м 3/0
[Ci fib]
+25.5 +21.1 77 +32 +32 очень
душно
1013.2 1012.9
21 9.07 ЮВ 1 9000 м 9/4 600 м
[Cu hum Ac trans Ci fib]
+24.1 +20.8 82 +30 +30 очень
душно
1012.9 1012.5
00 10.07 З 1 9000 м ясно +23.7 +20.7 83 +30 +32 очень
душно
1014.3 1013.9 +22.2
03 10.07 Ю 3 11 км 3/0
[Ci fib]
+31.1 +21.1 55 +39 +51 опасность
солнечного
удара
1013.7 1013.3
06 10.07 ЮВ 3 12 км ясно +33.7 +21.1 48 +41 +54 опасность
перегрева
1011.6 1011.2
09 10.07 В 4 11 км 4/3 600 м
[Cu hum Ci fib]
+30.8 +20.4 54 +38 +39 очень
душно
1010.9 1010.6
12 10.07 ЮВ 2 8000 м 3/1 600 м
[Cu hum Ci fib]
+28.1 +22.4 71 +37 +37 очень
душно
1012.2 1011.9 +33.8
15 10.07 Ю 2 7000 м 3/1 600 м
[Cu hum Ci fib]
+27.3 +23.2 78 +37 +37 очень
душно
1013.8 1013.4
18 10.07 З 3 7000 м 3/1 600 м
[Cu hum Ci fib]
+25.5 +21.8 80 +33 +33 очень
душно
1013.2 1012.9
21 10.07 З 1 7000 м 4/0
[Ci fib]
+24.1 +21.1 83 +30 +30 очень
душно
1013.1 1012.7
00 11.07 Ю 1 8000 м ясно +23.8 +21.1 85 +30 +33 очень
душно
1014.9 1014.5 +23.0
03 11.07 ЮВ 6 12 км 1/1 600 м
[Cu hum]
+31.1 +22.2 59 +40 +46 очень
душно
1014.9 1014.5
06 11.07 ЮВ 7 12 км 3/1 600 м
[Cu hum Ac trans]
+32.5 +21.3 52 +40 +43 очень
душно
1012.4 1012.0
09 11.07 ЮВ 3 11 км 5/4 600 м
[Cu hum Ac trans Ci fib]
+30.9 +22.1 59 +40 +40 очень
душно
1012.1 1011.7
12 11.07 ЮВ 3 9000 м 8/5 600 м
[Cu hum Ac trans Ci fib]
+28.3 +22.9 73 +38 +38 очень
душно
1014.0 1013.6 +33.2
15 11.07 ЮВ 2 9000 м 1/0
[Ac trans Ci fib]
+27.2 +22.6 76 +36 +36 очень
душно
1015.2 1014.9
18 11.07 Ю 1 8000 м ясно +26.1 +22.0 78 +34 +34 очень
душно
1013.9 1013.5
21 11.07 Ю 2 8000 м ясно +24.3 +21.2 83 +31 +31 очень
душно
1013.8 1013.4
00 12.07 штиль 0 9000 м 3/0
[Ci fib]
+23.6 +21.0 85 +30 +33 очень
душно
1015.0 1014.6 +23.3
03 12.07 В 5 10 км 3/0
[Ci fib]
+31.6 +21.5 55 +40 +47 очень
душно
1014.9 1014.9
06 12.07 ЮВ 5 12 км 3/1 600 м
[Cu hum Ci fib]
+34.3 +20.5 45 +41 +48 опасность
перегрева
1012.6 1012.3
09 12.07 ЮВ 3 12 км 3/3 600 м
[Cu hum]
+31.2 +20.4 53 +38 +39 очень
душно
1011.7 1011.3
12 12.07 Ю 4 10 км 1/0
[Ci fib]
+28.4 +22.0 68 +37 +37 очень
душно
1013.0 1012.6 +34.6
15 12.07 ЮВ 3 10 км ясно +26.8 +22.0 75 +35 +35 очень
душно
1013.6 1013.3
18 12.07 штиль 0 10 км ясно +25.2 +20.9 77 +32 +32 очень
душно
1013.4 1013.1
21 12.07 штиль 0 10 км ясно +23.8 +20.0 79 +29 +29 душно 1013.3 1013.0
00 13.07 ЮЗ 2 9000 м ясно +23.8 +20.6 82 +30 +32 очень
душно
1014.6 1014.2 +23.2
03 13.07 Ю 4 11 км ясно +31.0 +19.7 51 +37 +47 очень
душно
1014.4 1014.0
06 13.07 ЮВ 5 12 км ясно +33.2 +20.0 46 +39 +47 очень
душно
1011.2 1010.8
09 13.07 ЮВ 6 12 км ясно +30.6 +20.4 55 +38 +38 очень
душно
1010.0 1009.7
12 13.07 В 2 10 км 1/1 600 м
[Cu hum]
+27.6 +22.0 72 +36 +36 очень
душно
1011.7 1011.3 +33.4
15 13.07 Ю 2 10 км 1/0
[Ci fib]
+26.0 +20.2 70 +32 +32 очень
душно
1013.0 1012.7
18 13.07 З 3 10 км ясно +24.2 +19.5 75 +29 +29 душно 1012.7 1012.4
21 13.07 штиль 0 9000 м ясно +22.6 +19.1 81 +29 +29 очень
душно
1013.0 1012.6
00 14.07 Ю 2 9000 м ясно +22.3 +19.5 84 +28 +30 душно 1014.0 1013.7 +21.9
03 14.07 ЮВ 2 12 км ясно +30.7 +19.5 51 +36 +51 опасность
солнечного
удара
1013.3 1013.1
06 14.07 Ю 5 12 км ясно +32.3 +20.1 49 +39 +46 очень
душно
1011.4 1011.0
09 14.07 ЮВ 3 11 км 1/0
[Ci fib]
+30.2 +19.1 51 +36 +37 очень
душно
1010.0 1009.6
12 14.07 Ю 2 9000 м 4/3 600 м
[Cu hum Ci fib]
+27.8 +20.0 63 +34 +34 очень
душно
1011.8 1011.4 +32.6
15 14.07 Ю 1 9000 м 1/0
[Ci fib]
+26.8 +20.8 70 +34 +34 очень
душно
1012.5 1012.1
18 14.07 З 2 9000 м ясно +24.7 +20.5 77 +31 +31 очень
душно
1011.9 1011.5
21 14.07 ЮЗ 1 9000 м ясно +23.0 +20.4 85 +30 +30 очень
душно
1012.0 1011.6
00 15.07 СЗ 2 10 км ясно +23.0 +19.3 80 +29 +32 очень
душно
1012.9 1012.6 +21.7
03 15.07 ЮВ 3 12 км 4/0 600 м
[Ac trans Ci fib]
+29.6 +21.1 60 +37 +47 очень
душно
1012.6 1012.2
06 15.07 ЮВ 3 12 км 3/1 600 м
[Cu hum Ci fib]
+32.8 +20.2 48 +39 +51 опасность
солнечного
удара
1010.0 1009.7
09 15.07 ЮВ 7 10 км 4/1 600 м
[Cu hum Ci fib]
+30.9 +19.4 50 +37 +37 очень
душно
1009.2 1008.8
12 15.07 В 3 8000 м 5/0
[Ci fib]
+29.0 +21.1 62 +36 +36 очень
душно
1011.1 1010.8 +33.6
15 15.07 ЮВ 2 8000 м 8/4 600 м
[Cu hum Ci fib]
+26.9 +19.7 65 +33 +33 очень
душно
1012.9 1012.5
18 15.07 З 2 8000 м 4/0
[Ci fib]
+25.3 +19.9 72 +31 +31 очень
душно
1012.8 1012.4
21 15.07 ЮЗ 1 8000 м 4/0
[Ci fib]
+23.5 +19.1 76 +28 +28 душно 1012.3 1012.0

 

Местоположение метеостанции Сурабая Геданган (Индонезия): широта -7.22 долгота 113.71 высота над уровнем моря 113 м.

В архиве по умолчанию представлена погода в Сурабая Геданган за последнюю неделю. Архивные данные за месяц целиком и за предыдущие месяцы, начиная с января 2011 года, Вы можете получить, выбрав интересующий диапазон дат из раскрывающегося списка и нажав кнопку "Ввод!".


*Определитесь, кто Вы:
робот инопланетянин человек

Внимание! Время в таблицах - всемирное. Для получения местного времени необходимо прибавить поправку, которая равна 7 ч.

Смотрите также архив погоды в соседних городах и на ближайших метеорологических станциях:

Погода в Калиянджете (Индонезия) (33 км)
Погода в Аэропорту Джуанда (Индонезия) (106 км)
Погода в Сурабая Перак (Индонезия) (110 км)
Погода в Банюванги (Индонезия) (134 км)
Погода в Сангкапуре (Индонезия) (194 км)
Погода в Денпасаре (Индонезия) (233 км)
Погода в Матараме (Индонезия) (297 км)
Погода в Семаранге (Индонезия) (365 км)
Погода в Аэропорту Ахмад Яни (Индонезия) (369 км)
Погода в Сумбава-Бесаре (Индонезия) (431 км)

Пояснения к столбцам:

Ветер - указаны скорость ветра в м/с - средняя за 10 мин, порывы в срок и между сроками (в фигурных скобках) и направление, откуда дует ветер: С - северный, СВ - северо-восточный, В - восточный, ЮВ - юго-восточный, Ю - южный, ЮЗ - юго-западный, З - западный, СЗ - северо-западный.
Видимость - горизонтальная дальность видимости в метрах или километрах. При видимости от 1 до 10 км при отсутствии осадков обычно наблюдается дымка, при ухудшении видимости до 1 км и менее - туман. В сухую погоду видимость может ухудшаться дымом, пылью или мглою.
Явления - указаны атмосферные явления, наблюдавшиеся в срок или в последний час перед сроком; фигурными скобками обозначены явления, наблюдавшиеся между сроками (за 1-3 часа до срока); квадратными скобками обозначены град или гололедные отложения с указанием их диаметра в мм.
Облачность - указаны через наклонную черту общая и нижняя облачность в баллах и высота нижней границы облаков в метрах; квадратными скобками обозначены формы облаков: Ci - перистые, Cs - перисто-слоистые, Cc - перисто-кучевые, Ac - высококучевые, As - высокослоистые, Sc - слоисто-кучевые, Ns - слоисто-дождевые, Cu - кучевые, Cb - кучево-дождевые. Подробнее классификацию облаков см. в Атласе облаков (PDF).
T - Температура воздуха - температура, измеренная на высоте 2 м над землей.
Td - Температура точки росы - температура, при понижении до которой содержащийся в воздухе водяной пар достигнет насыщения.
f - Относительная влажность воздуха - влажноcть воздуха, измеренная на высоте 2 м над землей.
Te - Эффективная температура - температура, которую ощущает одетый по сезону человек в тени. Характеристика душности погоды. При расчете учитывается влияние влажности воздуха и скорости ветра на теплоощущения человека.
Tes - Эффективная температура на солнце - температура, которую ощущает человек, с поправкой на солнечный нагрев. Характеристика знойности погоды. Зависит от высоты солнца над горизонтом, облачности и скорости ветра. Ночью, в пасмурную погоду, а также при ветре 12 м/с и более поправка равна нулю.
P - Атмосферное давление - приведенное к уровню моря атмосферное давление.
Po - Атмосферное давление - измеренное на уровне метеостанции атмосферное давление.
Tmin - Минимальная температура - минимум температуры воздуха на высоте 2 м над землей.
Tmax - Максимальная температура - максимум температуры воздуха на высоте 2 м над землей.
R - Количество осадков - Количество выпавших осадков за период времени, мм. При наведении курсора мыши на число - период времени, за который выпало указанное количество осадков.
R24 - Количество осадков - Количество выпавших осадков за 24 часа, мм.
S - Снежный покров - Высота снежного покрова, см. При наведении курсора мыши на число - состояние снежного покрова и степень покрытия местности в баллах.